GW5271 Weather Reports


Display with metric or nautical units.
time (UTC)temp
F
wind
direction
speed
MPH
gust
MPH
rain 1hr
in
rain 24hr
in
rain mn
in
humidity
%
barometer
mb
20260510033313 45 182 0.0 0.0 0.00 0.00 0.00 99 1013.7
20260510032809 45 182 0.0 0.0 0.00 0.00 0.00 99 1013.7
20260510032306 45 182 0.0 0.0 0.00 0.00 0.00 98 1013.6
20260510031801 45 182 0.0 0.0 0.00 0.00 0.00 98 1013.5
20260510031258 45 182 0.0 0.0 0.00 0.00 0.00 98 1013.5
20260510030756 45 182 0.0 0.0 0.00 0.00 0.00 98 1013.6
20260510030254 46 182 0.0 0.0 0.00 0.00 0.00 98 1013.5
20260510025751 45 182 0.0 0.0 0.00 0.00 0.00 97 1013.3
20260510025249 45 182 0.0 0.0 0.00 0.00 0.00 97 1013.1
20260510024745 46 182 0.0 0.0 0.00 0.00 0.00 98 1013.3
20260510024242 47 182 0.0 0.0 0.00 0.00 0.00 98 1013.5
20260510023738 47 182 0.0 0.0 0.00 0.00 0.00 97 1013.3
20260510023235 47 182 0.0 0.0 0.00 0.00 0.00 97 1013.3
20260510022732 47 182 0.0 0.0 0.00 0.00 0.00 97 1013.3
20260510022231 47 182 0.0 0.0 0.00 0.00 0.00 97 1013.1
20260510021726 48 182 0.0 0.0 0.00 0.00 0.00 97 1013.3
20260510021224 48 182 0.0 0.0 0.00 0.00 0.00 96 1013.3
20260510020719 47 182 0.0 0.0 0.00 0.00 0.00 94 1013.1
20260510020219 48 182 0.0 0.0 0.00 0.00 0.00 94 1013.1
20260510015715 48 182 0.0 0.0 0.00 0.00 0.00 93 1012.9
20260510015212 49 182 0.0 0.0 0.00 0.00 0.00 93 1012.8
20260510014707 49 182 0.0 0.0 0.00 0.00 0.00 94 1013.1
20260510014206 50 182 0.0 1.0 0.00 0.00 0.00 93 1012.7
20260510013706 49 182 0.0 0.0 0.00 0.00 0.00 92 1012.7
20260510013202 49 182 0.0 0.0 0.00 0.00 0.00 90 1012.5
20260510012701 50 182 0.0 0.0 0.00 0.00 0.00 87 1012.5
20260510012157 51 182 0.0 0.0 0.00 0.00 0.00 88 1012.5
20260510011652 51 182 0.0 0.0 0.00 0.00 0.00 87 1012.3
20260510011148 52 182 0.0 0.0 0.00 0.00 0.00 85 1012.4
20260510010644 53 182 0.0 0.0 0.00 0.00 0.00 83 1012.0
20260510010141 53 182 1.0 1.0 0.00 0.00 0.00 83 1012.1
20260510005637 54 244 0.0 0.0 0.00 0.00 0.00 81 1012.0
20260510005134 55 244 0.0 0.0 0.00 0.00 0.00 79 1011.9
20260510004633 56 244 0.0 0.0 0.00 0.00 0.00 77 1012.0
20260510004131 57 244 0.0 0.0 0.00 0.00 0.00 74 1011.9
20260510003627 58 244 0.0 0.0 0.00 0.00 0.00 72 1011.7
20260510003123 59 236 0.0 0.0 0.00 0.00 0.00 69 1011.7
20260510002623 61 236 0.0 0.0 0.00 0.00 0.00 67 1011.5
20260510002120 61 230 1.0 2.0 0.00 0.00 0.00 66 1011.4
20260510001617 61 246 2.0 3.0 0.00 0.00 0.00 66 1011.4
20260510001116 62 243 0.0 0.0 0.00 0.00 0.00 65 1011.6
20260510000616 62 206 0.0 1.0 0.00 0.00 0.00 63 1011.4
20260510000114 62 258 4.0 4.0 0.00 0.00 0.00 62 1011.5
20260509235610 63 259 2.0 3.0 0.00 0.00 0.00 63 1011.4
20260509235107 63 257 2.0 3.0 0.00 0.00 0.00 62 1011.4
20260509234603 63 234 0.0 4.0 0.00 0.00 0.00 62 1011.2
20260509234101 63 256 4.0 4.0 0.00 0.00 0.00 60 1011.2
20260509233558 64 279 4.0 4.0 0.00 0.00 0.00 61 1011.1
20260509233055 64 224 1.0 2.0 0.00 0.00 0.00 61 1011.1
20260509232551 64 253 3.0 6.0 0.00 0.00 0.00 60 1011.3
20260509232049 64 247 6.0 9.0 0.00 0.00 0.00 59 1011.2
20260509231545 64 302 3.0 6.0 0.00 0.00 0.00 60 1011.4
20260509231043 64 234 7.0 10.0 0.00 0.00 0.00 58 1011.3
20260509230539 65 274 1.0 4.0 0.00 0.00 0.00 60 1011.3
20260509230037 65 225 5.0 8.0 0.00 0.00 0.00 58 1011.4
20260509225532 65 292 4.0 8.0 0.00 0.00 0.00 58 1011.4
20260509225027 65 224 8.0 9.0 0.00 0.00 0.00 59 1011.2
20260509224523 65 237 4.0 8.0 0.00 0.00 0.00 59 1011.5
20260509224020 65 238 4.0 6.0 0.00 0.00 0.00 61 1011.5
20260509223517 65 232 2.0 6.0 0.00 0.00 0.00 61 1011.6
20260509223015 65 230 4.0 9.0 0.00 0.00 0.00 60 1011.4
20260509222511 65 231 7.0 8.0 0.00 0.00 0.00 60 1011.5
20260509222006 65 216 6.0 10.0 0.00 0.00 0.00 59 1011.6
20260509221502 65 199 3.0 7.0 0.00 0.00 0.00 60 1011.5
20260509220958 65 233 2.0 6.0 0.00 0.00 0.00 60 1011.8
20260509220455 65 296 4.0 7.0 0.00 0.00 0.00 59 1011.6
20260509215950 65 222 8.0 11.0 0.00 0.00 0.00 62 1011.5
20260509215446 65 220 2.0 6.0 0.00 0.00 0.00 62 1011.8
20260509214944 65 221 2.0 4.0 0.00 0.00 0.00 63 1011.9
20260509214441 65 306 4.0 6.0 0.00 0.00 0.00 60 1011.6
20260509213937 65 268 5.0 7.0 0.00 0.00 0.00 60 1011.7
20260509213433 65 303 3.0 10.0 0.00 0.00 0.00 60 1011.6
20260509212931 65 303 4.0 8.0 0.00 0.00 0.00 59 1011.6
20260509212429 66 293 2.0 8.0 0.00 0.00 0.00 58 1011.4
20260509211924 65 272 4.0 8.0 0.00 0.00 0.00 60 1011.5
20260509211420 65 288 7.0 8.0 0.00 0.00 0.00 58 1011.5
20260509210917 65 277 1.0 4.0 0.00 0.00 0.00 60 1011.6
20260509210414 66 300 4.0 7.0 0.00 0.00 0.00 58 1011.4
20260509205910 66 251 5.0 8.0 0.00 0.00 0.00 58 1011.5
20260509205409 66 301 6.0 8.0 0.00 0.00 0.00 60 1011.3
20260509204906 65 275 6.0 9.0 0.00 0.00 0.00 61 1011.4
20260509204402 65 249 4.0 7.0 0.00 0.00 0.00 59 1011.4
20260509203859 66 269 3.0 8.0 0.00 0.00 0.00 62 1011.4
20260509203355 65 253 3.0 4.0 0.00 0.00 0.00 60 1011.3
20260509202853 66 299 2.0 4.0 0.00 0.00 0.00 61 1011.4
20260509202348 66 298 6.0 9.0 0.00 0.00 0.00 57 1011.3
20260509201843 65 294 2.0 8.0 0.00 0.00 0.00 58 1011.4
20260509201339 66 287 2.0 6.0 0.00 0.00 0.00 63 1011.6
20260509200836 66 305 2.0 7.0 0.00 0.00 0.00 59 1011.4
20260509200331 65 1 6.0 9.0 0.00 0.00 0.00 58 1011.3
20260509195828 65 290 3.0 8.0 0.00 0.00 0.00 60 1011.6
20260509195328 65 202 2.0 4.0 0.00 0.00 0.00 63 1011.6
20260509194827 65 238 5.0 7.0 0.00 0.00 0.00 60 1011.7
20260509194324 65 282 0.0 3.0 0.00 0.00 0.00 63 1011.5
20260509193821 64 282 5.0 7.0 0.00 0.00 0.00 61 1011.6
20260509193320 65 277 4.0 8.0 0.00 0.00 0.00 61 1011.4
20260509192817 64 266 6.0 8.0 0.00 0.00 0.00 60 1011.5
20260509192313 64 259 4.0 7.0 0.00 0.00 0.00 61 1011.6
20260509191808 65 305 4.0 6.0 0.00 0.00 0.00 60 1011.5
20260509191304 64 293 3.0 7.0 0.00 0.00 0.00 60 1011.5
20260509190800 64 273 3.0 7.0 0.00 0.00 0.00 61 1011.5
20260509190258 64 275 4.0 6.0 0.00 0.00 0.00 61 1011.4
20260509185755 64 265 3.0 7.0 0.00 0.00 0.00 61 1011.5
20260509185251 63 313 7.0 10.0 0.00 0.00 0.00 60 1011.6
20260509184749 64 281 6.0 15.0 0.00 0.00 0.00 62 1011.7
20260509184246 64 290 3.0 10.0 0.00 0.00 0.00 60 1011.5
20260509183742 64 266 6.0 10.0 0.00 0.00 0.00 59 1011.6
20260509183238 65 294 2.0 7.0 0.00 0.00 0.00 63 1011.4
20260509182733 64 232 2.0 10.0 0.00 0.00 0.00 65 1011.2
20260509182231 64 273 6.0 9.0 0.00 0.00 0.00 59 1011.4
20260509181728 64 290 9.0 11.0 0.00 0.00 0.00 59 1011.4
20260509181225 65 199 3.0 9.0 0.00 0.00 0.00 60 1011.5
20260509180722 65 209 5.0 8.0 0.00 0.00 0.00 56 1011.4
20260509180219 64 206 5.0 7.0 0.00 0.00 0.00 61 1011.5
20260509175715 65 297 11.0 13.0 0.00 0.00 0.00 56 1011.5
20260509175212 64 272 4.0 8.0 0.00 0.00 0.00 61 1011.6
20260509174707 65 236 5.0 7.0 0.00 0.00 0.00 58 1011.4
20260509174202 66 284 4.0 9.0 0.00 0.00 0.00 56 1011.5
20260509173659 65 247 3.0 6.0 0.00 0.00 0.00 61 1011.4
20260509173155 64 282 6.0 11.0 0.00 0.00 0.00 56 1011.4
20260509172651 64 219 4.0 6.0 0.00 0.00 0.00 54 1011.6
20260509172147 64 289 5.0 10.0 0.00 0.00 0.00 54 1011.6
20260509171643 63 222 6.0 9.0 0.00 0.00 0.00 56 1011.5
20260509171140 64 274 6.0 9.0 0.00 0.00 0.00 55 1011.6
20260509170637 64 217 5.0 11.0 0.00 0.00 0.00 57 1011.7
20260509170132 64 228 7.0 11.0 0.00 0.00 0.00 56 1011.5
20260509165631 63 254 3.0 7.0 0.00 0.00 0.00 59 1011.7
20260509165127 63 189 5.0 7.0 0.00 0.00 0.00 61 1011.5
20260509164622 63 188 3.0 7.0 0.00 0.00 0.00 62 1011.9
20260509164119 62 176 4.0 6.0 0.00 0.00 0.00 63 1011.8
20260509163617 62 179 3.0 7.0 0.00 0.00 0.00 62 1011.9
20260509163112 61 151 1.0 2.0 0.00 0.00 0.00 61 1011.8
20260509162610 61 175 2.0 3.0 0.00 0.00 0.00 63 1011.7
20260509162105 60 200 1.0 2.0 0.00 0.00 0.00 60 1011.9
20260509161602 60 188 2.0 3.0 0.00 0.00 0.00 62 1011.9
20260509161102 60 157 3.0 4.0 0.00 0.00 0.00 62 1011.9
20260509160558 60 218 0.0 1.0 0.00 0.00 0.00 61 1012.1
20260509160054 60 195 0.0 0.0 0.00 0.00 0.00 63 1012.0
20260509155550 60 166 2.0 3.0 0.00 0.00 0.00 64 1012.1
20260509155047 60 226 2.0 3.0 0.00 0.00 0.00 64 1012.3
20260509154543 60 211 4.0 4.0 0.00 0.00 0.00 64 1012.4
20260509154040 60 217 2.0 3.0 0.00 0.00 0.00 66 1012.3
20260509153537 60 228 2.0 6.0 0.00 0.00 0.00 67 1012.5
20260509153034 60 205 3.0 6.0 0.00 0.00 0.00 68 1012.1
20260509152530 59 202 5.0 6.0 0.00 0.00 0.00 65 1012.1
20260509152027 59 185 4.0 4.0 0.00 0.00 0.00 69 1012.3
20260509151523 59 120 1.0 3.0 0.00 0.00 0.00 67 1012.6
20260509151021 59 153 0.0 1.0 0.00 0.00 0.00 70 1012.7
20260509150518 59 228 2.0 2.0 0.00 0.00 0.00 68 1012.9
20260509150017 58 219 1.0 1.0 0.00 0.00 0.00 71 1012.9
20260509145512 59 141 0.0 1.0 0.00 0.00 0.00 66 1012.8
20260509145007 59 109 0.0 2.0 0.00 0.00 0.00 70 1012.5
20260509144505 60 262 2.0 3.0 0.00 0.00 0.00 66 1012.4
20260509144002 59 208 2.0 2.0 0.00 0.00 0.00 69 1012.4
20260509143459 60 39 0.0 3.0 0.00 0.00 0.00 70 1012.6
20260509142955 60 136 0.0 1.0 0.00 0.00 0.00 69 1012.6
20260509142452 59 17 0.0 0.0 0.00 0.00 0.00 71 1012.5
20260509141947 59 293 1.0 1.0 0.00 0.00 0.00 72 1012.5
20260509141444 57 142 0.0 2.0 0.00 0.00 0.00 73 1012.5
20260509140941 58 128 2.0 2.0 0.00 0.00 0.00 73 1012.6
20260509140437 57 13 0.0 0.0 0.00 0.00 0.00 74 1012.4
20260509135936 57 19 1.0 2.0 0.00 0.00 0.00 76 1012.7
20260509135432 58 39 0.0 0.0 0.00 0.00 0.00 72 1012.7
20260509134930 57 234 0.0 0.0 0.00 0.00 0.00 79 1012.6
20260509134427 57 224 1.0 1.0 0.00 0.00 0.00 76 1012.7
20260509133924 56 216 0.0 0.0 0.00 0.00 0.00 77 1012.6
20260509133421 56 73 1.0 1.0 0.00 0.00 0.00 72 1012.7
20260509132919 56 34 0.0 2.0 0.00 0.00 0.00 75 1012.9
20260509132417 56 309 1.0 1.0 0.00 0.00 0.00 78 1013.0
20260509131914 55 300 1.0 3.0 0.00 0.00 0.00 76 1012.9
20260509131411 55 231 0.0 0.0 0.00 0.00 0.00 79 1012.8
20260509130908 55 206 0.0 0.0 0.00 0.00 0.00 80 1012.9
20260509130403 55 113 0.0 0.0 0.00 0.00 0.00 81 1012.8
20260509125900 54 114 0.0 0.0 0.00 0.00 0.00 83 1012.7
20260509125357 54 63 0.0 0.0 0.00 0.00 0.00 84 1013.0
20260509124852 53 10 0.0 0.0 0.00 0.00 0.00 86 1012.7
20260509124350 53 53 0.0 0.0 0.00 0.00 0.00 87 1012.8
20260509123848 52 227 0.0 0.0 0.00 0.00 0.00 89 1012.8
20260509123345 52 151 0.0 0.0 0.00 0.00 0.00 90 1012.8
20260509122840 51 172 0.0 0.0 0.00 0.00 0.00 91 1012.8
20260509122337 51 119 0.0 0.0 0.00 0.00 0.00 91 1012.8
20260509121834 51 148 0.0 0.0 0.00 0.00 0.00 92 1012.8
20260509121331 51 175 0.0 0.0 0.00 0.00 0.00 92 1012.8
20260509120830 50 29 0.0 0.0 0.00 0.00 0.00 92 1012.8
20260509120327 50 10 0.0 0.0 0.00 0.00 0.00 92 1012.8
20260509115825 50 216 0.0 0.0 0.00 0.00 0.00 93 1012.7
20260509115322 50 217 0.0 0.0 0.00 0.00 0.00 93 1013.1
20260509114819 49 159 0.0 0.0 0.00 0.00 0.00 93 1012.8
20260509114318 49 182 0.0 0.0 0.00 0.00 0.00 93 1013.1
20260509113817 49 183 0.0 0.0 0.00 0.00 0.00 94 1013.1
20260509113313 49 156 0.0 0.0 0.00 0.00 0.00 94 1013.0
20260509112810 49 166 0.0 0.0 0.00 0.00 0.00 94 1012.9
20260509112307 49 166 0.0 0.0 0.00 0.00 0.00 94 1013.0
20260509111805 48 185 0.0 0.0 0.00 0.00 0.00 94 1013.1
20260509111301 48 185 0.0 0.0 0.00 0.00 0.00 94 1012.9
20260509110759 48 151 0.0 0.0 0.00 0.00 0.00 94 1012.8
20260509110255 48 121 0.0 0.0 0.00 0.00 0.00 95 1012.8
20260509105753 48 135 0.0 0.0 0.00 0.00 0.00 95 1013.0
20260509105250 48 211 0.0 0.0 0.00 0.00 0.00 94 1012.8
20260509104747 48 207 0.0 0.0 0.00 0.00 0.00 94 1012.9
20260509104244 48 118 0.0 0.0 0.00 0.00 0.00 94 1012.8
20260509103742 48 129 0.0 0.0 0.00 0.00 0.00 93 1012.8
20260509103239 48 193 0.0 0.0 0.00 0.00 0.00 93 1012.8
20260509102738 48 115 0.0 0.0 0.00 0.00 0.00 92 1012.7
20260509102234 48 113 0.0 0.0 0.00 0.00 0.00 93 1012.7
20260509101730 48 194 0.0 0.0 0.00 0.00 0.00 93 1012.8
20260509101227 48 152 0.0 0.0 0.00 0.00 0.00 92 1012.4
20260509100724 48 139 0.0 1.0 0.00 0.00 0.00 92 1012.8
20260509100222 48 134 0.0 0.0 0.00 0.00 0.00 91 1012.9
20260509095718 48 143 0.0 0.0 0.00 0.00 0.00 92 1012.8
20260509095216 48 134 0.0 0.0 0.00 0.00 0.00 92 1012.7
20260509094712 49 145 0.0 0.0 0.00 0.00 0.00 90 1012.7
20260509094209 49 160 0.0 0.0 0.00 0.00 0.00 89 1012.8
20260509093708 49 141 0.0 0.0 0.00 0.00 0.00 90 1012.7
20260509093204 49 129 0.0 0.0 0.00 0.00 0.00 91 1012.8
20260509092702 49 141 0.0 0.0 0.00 0.00 0.00 90 1013.0
20260509092200 50 145 0.0 0.0 0.00 0.00 0.00 88 1012.8
20260509091658 50 146 0.0 0.0 0.00 0.00 0.00 86 1012.8
20260509091154 50 50 0.0 0.0 0.00 0.00 0.00 86 1012.8
20260509090652 49 30 1.0 6.0 0.00 0.00 0.00 89 1012.9
20260509090149 49 262 0.0 0.0 0.00 0.00 0.00 92 1012.8
20260509085647 49 185 0.0 0.0 0.00 0.00 0.00 92 1012.7
20260509085142 49 187 0.0 0.0 0.00 0.00 0.00 92 1012.6
20260509084640 49 231 0.0 1.0 0.00 0.00 0.00 93 1012.8
20260509084137 49 156 0.0 0.0 0.00 0.00 0.00 93 1012.7
20260509083634 49 132 0.0 0.0 0.00 0.00 0.00 93 1012.7
20260509083131 49 144 0.0 1.0 0.00 0.00 0.00 93 1012.6
20260509082628 49 67 0.0 1.0 0.00 0.00 0.00 91 1012.8
20260509082124 49 153 0.0 0.0 0.00 0.00 0.00 90 1012.7
20260509081622 50 175 1.0 2.0 0.00 0.00 0.00 90 1012.9
20260509081119 50 36 1.0 1.0 0.00 0.00 0.00 88 1012.8
20260509080617 49 46 0.0 1.0 0.00 0.00 0.00 90 1012.7
20260509080114 49 51 0.0 0.0 0.00 0.00 0.00 92 1012.6
20260509075612 49 88 0.0 0.0 0.00 0.00 0.00 94 1012.7
20260509075110 49 115 0.0 0.0 0.00 0.00 0.00 94 1012.6
20260509074606 49 115 0.0 0.0 0.00 0.00 0.00 94 1012.5
20260509074103 49 115 0.0 0.0 0.00 0.00 0.00 94 1012.5
20260509073600 49 115 0.0 0.0 0.00 0.00 0.00 94 1012.7
20260509073056 49 115 0.0 0.0 0.00 0.00 0.00 94 1012.4
20260509072552 49 115 0.0 0.0 0.00 0.00 0.00 94 1012.5
20260509072050 49 115 0.0 0.0 0.00 0.00 0.00 94 1012.3
20260509071546 49 133 0.0 0.0 0.00 0.00 0.00 94 1012.3
20260509071044 49 190 0.0 0.0 0.00 0.00 0.00 94 1012.4
20260509070541 49 134 0.0 0.0 0.00 0.00 0.00 94 1012.4
20260509070037 49 142 0.0 0.0 0.00 0.00 0.00 94 1012.5
20260509065532 49 148 0.0 0.0 0.00 0.00 0.00 94 1012.4
20260509065029 49 148 0.0 0.0 0.00 0.00 0.00 94 1012.3
20260509064527 49 148 0.0 0.0 0.00 0.00 0.00 94 1012.3
20260509064025 49 148 0.0 0.0 0.00 0.00 0.00 93 1012.4
20260509063519 49 148 0.0 0.0 0.00 0.00 0.00 91 1012.4
20260509063017 49 131 0.0 0.0 0.00 0.00 0.00 91 1012.7
20260509062514 49 131 0.0 0.0 0.00 0.00 0.00 91 1012.6
20260509062012 49 131 0.0 0.0 0.00 0.00 0.00 91 1012.6
20260509061509 49 131 0.0 0.0 0.00 0.00 0.00 91 1012.6
20260509061006 49 139 0.0 0.0 0.00 0.00 0.00 93 1012.7
20260509060503 49 139 0.0 0.0 0.00 0.00 0.00 93 1012.8
20260509055959 49 139 0.0 0.0 0.00 0.00 0.00 94 1012.7
20260509055454 49 139 0.0 0.0 0.00 0.00 0.00 94 1012.7
20260509054951 49 134 0.0 0.0 0.00 0.00 0.00 93 1012.6
20260509054448 49 120 0.0 0.0 0.00 0.00 0.00 91 1012.8
20260509053946 49 119 0.0 0.0 0.00 0.00 0.00 92 1013.1
20260509053443 49 141 0.0 0.0 0.00 0.00 0.00 92 1013.0
20260509052941 49 146 0.0 0.0 0.00 0.00 0.00 93 1013.2
20260509052438 49 138 0.0 0.0 0.00 0.00 0.00 92 1013.2
20260509051936 49 114 0.0 0.0 0.00 0.00 0.00 91 1013.1
20260509051434 49 114 0.0 0.0 0.00 0.00 0.00 90 1013.1
20260509050931 49 114 0.0 0.0 0.00 0.00 0.00 90 1013.3
20260509050427 49 114 0.0 0.0 0.00 0.00 0.00 90 1013.2
20260509045924 49 114 0.0 0.0 0.00 0.00 0.00 90 1013.2
20260509045421 49 114 0.0 0.0 0.00 0.00 0.00 91 1013.2
20260509044918 49 104 0.0 0.0 0.00 0.00 0.00 90 1013.2
20260509044416 49 105 0.0 0.0 0.00 0.00 0.00 89 1013.3
20260509043913 49 105 0.0 0.0 0.00 0.00 0.00 91 1013.6
20260509043408 49 105 0.0 0.0 0.00 0.00 0.00 90 1013.4
20260509042904 49 231 0.0 0.0 0.00 0.00 0.00 91 1013.5
20260509042401 50 238 0.0 0.0 0.00 0.00 0.00 91 1013.5
20260509041857 49 254 0.0 0.0 0.00 0.00 0.00 89 1013.4
20260509041354 49 147 0.0 0.0 0.00 0.00 0.00 89 1013.5
20260509040853 50 149 0.0 0.0 0.00 0.00 0.00 90 1013.8
20260509040350 50 136 0.0 0.0 0.00 0.00 0.00 88 1013.5
20260509035847 50 133 0.0 0.0 0.00 0.00 0.00 88 1013.7
20260509035344 50 133 0.0 0.0 0.00 0.00 0.00 87 1013.6
20260509034840 50 133 0.0 0.0 0.00 0.00 0.00 86 1013.6
20260509034338 50 133 1.0 1.0 0.00 0.00 0.00 87 1013.6
20260509033834 49 136 0.0 0.0 0.00 0.00 0.00 86 1013.8